Погода в Богословке

Россия / Амурская область     51°52′05″N   129°14′08″E
темп.,
°C
ветер,
м/с
пор.,
м/с
влажн.,
%
обл.,
%
осадки,
мм/ч
давл.,
гПа
погр.,
м
26 февраля, пт
пт2600:00−25зсз119490 0.0 103020
03:00−26зсз129592 0.0 103020
06:00−27сз119918 0.0 103219
09:00−24з119616 0.0 103347
12:00−18сз128376 0.0 1034413
15:00−15сз237788 0.0 1034709
18:00−21юв0195100 0.0 103420
21:00−23ю1110094 0.0 103520
27 февраля, сб
сб2700:00−24ю119932 0.0 103620
03:00−23юв239666 0.0 103425
06:00−23вюв3595100 0.0 103192
09:00−19вюв3587100 0.0 1028266
12:00−14юв51280100 0.1 1022544
15:00−11ююв71392100 1.1 1015729
18:00−9ю61494100 3.0 1012849
21:00−10ю61293100 4.9 1011641
28 февраля, вс
вс2800:00−10юз3895100 0.4 1012316
03:00−15зсз41088100 0.6 1016375
06:00−21з489023 0.0 1020161
09:00−20з498812 0.0 1023512
12:00−16з58740 0.0 10251004
15:00−16зсз6107135 0.0 10261374
18:00−19зсз3883100 0.1 1028263
21:00−22зсз3987100 0.1 1031198
1 марта, пн
пн100:00−24зсз488412 0.0 1032178
03:00−26з48836 0.0 1033161
06:00−28зюз35820 0.0 103496
09:00−26з36800 0.0 1035279
12:00−20зсз48670 0.0 10341093
15:00−19зсз596617 0.0 10331475
18:00−22з2384100 0.0 103362
21:00−24зюз238999 0.0 103430
2 марта, вт
вт200:00−28зюз238917 0.0 103427
03:00−28зюз238736 0.0 103421
06:00−30з229021 0.0 103419
09:00−27ссз008919 0.0 103343
12:00−22юз128367 0.0 1032429
15:00−19зюз227381 0.0 1030780
18:00−24ююз119195 0.0 102920
21:00−27юв119052 0.0 102920